Grub im Wienerwald
Wetterdaten: aktuell Donnerstag, 25.04.2019 04:54
Datum Zeit Temp. A. Feuchte A. Luftdruck Regen Wind Richtung Richtung Sonnenschein UV Solar Taupunkt Windchill Windben
25.04.2019 04:54 7,2 C 89 % 1010,0 hPa 0,0 l/m 0,0 km/h SO 142 0 min 0,0 UV-I 0 W/m 5,5 C 7,2 C 0,0 km/h
25.04.2019 04:51 7,2 C 90 % 1010,0 hPa 0,0 l/m 0,2 km/h SO 142 0 min 0,0 UV-I 0 W/m 5,7 C 7,2 C 1,6 km/h
25.04.2019 04:48 7,3 C 89 % 1009,9 hPa 0,0 l/m 0,0 km/h SO 142 0 min 0,0 UV-I 0 W/m 5,6 C 7,3 C 0,0 km/h
25.04.2019 04:45 7,3 C 89 % 1009,8 hPa 0,0 l/m 0,0 km/h SO 142 0 min 0,0 UV-I 0 W/m 5,6 C 7,3 C 0,0 km/h
25.04.2019 04:42 7,4 C 89 % 1009,8 hPa 0,0 l/m 0,0 km/h SO 142 0 min 0,0 UV-I 0 W/m 5,7 C 7,4 C 0,0 km/h
25.04.2019 04:39 7,4 C 89 % 1009,8 hPa 0,0 l/m 0,2 km/h SO 142 0 min 0,0 UV-I 0 W/m 5,7 C 7,4 C 1,6 km/h
25.04.2019 04:36 7,5 C 89 % 1009,8 hPa 0,0 l/m 0,0 km/h SO 142 0 min 0,0 UV-I 0 W/m 5,8 C 7,5 C 0,0 km/h
25.04.2019 04:33 7,6 C 90 % 1009,8 hPa 0,0 l/m 0,0 km/h SO 142 0 min 0,0 UV-I 0 W/m 6,1 C 7,6 C 0,0 km/h
25.04.2019 04:30 7,6 C 89 % 1009,9 hPa 0,0 l/m 0,0 km/h SO 142 0 min 0,0 UV-I 0 W/m 5,9 C 7,6 C 0,0 km/h
25.04.2019 04:27 7,6 C 89 % 1010,0 hPa 0,0 l/m 0,0 km/h SO 142 0 min 0,0 UV-I 0 W/m 5,9 C 7,6 C 0,0 km/h
25.04.2019 04:24 7,7 C 89 % 1010,1 hPa 0,0 l/m 0,0 km/h SO 142 0 min 0,0 UV-I 0 W/m 6,0 C 7,7 C 0,0 km/h
25.04.2019 04:21 7,7 C 89 % 1010,1 hPa 0,0 l/m 0,0 km/h SO 142 0 min 0,0 UV-I 0 W/m 6,0 C 7,7 C 0,0 km/h
25.04.2019 04:18 7,8 C 89 % 1010,0 hPa 0,0 l/m 0,0 km/h SO 142 0 min 0,0 UV-I 0 W/m 6,1 C 7,8 C 0,0 km/h
25.04.2019 04:15 7,8 C 89 % 1010,0 hPa 0,0 l/m 0,0 km/h SO 142 0 min 0,0 UV-I 0 W/m 6,1 C 7,8 C 1,6 km/h
25.04.2019 04:12 7,8 C 89 % 1009,9 hPa 0,0 l/m 0,0 km/h SO 142 0 min 0,0 UV-I 0 W/m 6,1 C 7,8 C 0,0 km/h
25.04.2019 04:09 7,9 C 89 % 1009,9 hPa 0,0 l/m 0,0 km/h SO 142 0 min 0,0 UV-I 0 W/m 6,2 C 7,9 C 0,0 km/h
25.04.2019 04:06 7,9 C 89 % 1009,9 hPa 0,0 l/m 0,0 km/h SO 142 0 min 0,0 UV-I 0 W/m 6,2 C 7,9 C 0,0 km/h
25.04.2019 04:03 7,9 C 89 % 1009,8 hPa 0,0 l/m 0,0 km/h SO 142 0 min 0,0 UV-I 0 W/m 6,2 C 7,9 C 0,0 km/h
25.04.2019 04:00 8,0 C 89 % 1009,7 hPa 0,0 l/m 0,0 km/h SO 142 0 min 0,0 UV-I 0 W/m 6,3 C 8,0 C 0,0 km/h
25.04.2019 03:57 8,1 C 89 % 1009,7 hPa 0,0 l/m 0,0 km/h SO 142 0 min 0,0 UV-I 0 W/m 6,4 C 8,1 C 0,0 km/h
25.04.2019 03:54 8,1 C 89 % 1009,7 hPa 0,0 l/m 0,0 km/h SO 142 0 min 0,0 UV-I 0 W/m 6,4 C 8,1 C 0,0 km/h
25.04.2019 03:51 8,1 C 89 % 1009,7 hPa 0,0 l/m 0,0 km/h SO 142 0 min 0,0 UV-I 0 W/m 6,4 C 8,1 C 0,0 km/h
25.04.2019 03:48 8,2 C 89 % 1009,7 hPa 0,0 l/m 0,0 km/h SO 142 0 min 0,0 UV-I 0 W/m 6,5 C 8,2 C 0,0 km/h
25.04.2019 03:45 8,2 C 88 % 1009,6 hPa 0,0 l/m 0,0 km/h SO 142 0 min 0,0 UV-I 0 W/m 6,3 C 8,2 C 0,0 km/h
25.04.2019 03:42 8,2 C 88 % 1009,6 hPa 0,0 l/m 0,0 km/h SO 142 0 min 0,0 UV-I 0 W/m 6,3 C 8,2 C 0,0 km/h
25.04.2019 03:39 8,2 C 88 % 1009,7 hPa 0,0 l/m 0,0 km/h SO 142 0 min 0,0 UV-I 0 W/m 6,3 C 8,2 C 1,6 km/h
25.04.2019 03:36 8,3 C 88 % 1009,8 hPa 0,0 l/m 0,0 km/h SO 142 0 min 0,0 UV-I 0 W/m 6,4 C 8,3 C 0,0 km/h
25.04.2019 03:33 8,3 C 88 % 1009,7 hPa 0,0 l/m 0,0 km/h SO 142 0 min 0,0 UV-I 0 W/m 6,4 C 8,3 C 0,0 km/h
25.04.2019 03:30 8,3 C 88 % 1009,7 hPa 0,0 l/m 0,0 km/h SO 142 0 min 0,0 UV-I 0 W/m 6,4 C 8,3 C 1,6 km/h
25.04.2019 03:27 8,4 C 88 % 1009,7 hPa 0,0 l/m 0,0 km/h SO 142 0 min 0,0 UV-I 0 W/m 6,5 C 8,4 C 1,6 km/h
25.04.2019 03:24 8,4 C 87 % 1009,7 hPa 0,0 l/m 0,1 km/h SO 142 0 min 0,0 UV-I 0 W/m 6,4 C 8,4 C 1,6 km/h
25.04.2019 03:21 8,5 C 87 % 1009,6 hPa 0,0 l/m 0,0 km/h SO 142 0 min 0,0 UV-I 0 W/m 6,5 C 8,5 C 0,0 km/h
25.04.2019 03:18 8,6 C 87 % 1009,5 hPa 0,0 l/m 0,0 km/h SO 142 0 min 0,0 UV-I 0 W/m 6,6 C 8,6 C 0,0 km/h
25.04.2019 03:15 8,6 C 87 % 1009,7 hPa 0,0 l/m 0,0 km/h SO 142 0 min 0,0 UV-I 0 W/m 6,6 C 8,6 C 0,0 km/h
25.04.2019 03:12 8,7 C 87 % 1009,7 hPa 0,0 l/m 0,0 km/h SO 142 0 min 0,0 UV-I 0 W/m 6,7 C 8,7 C 0,0 km/h
25.04.2019 03:09 8,7 C 87 % 1009,6 hPa 0,0 l/m 0,0 km/h SO 142 0 min 0,0 UV-I 0 W/m 6,7 C 8,7 C 0,0 km/h
25.04.2019 03:06 8,8 C 87 % 1009,5 hPa 0,0 l/m 0,0 km/h SO 142 0 min 0,0 UV-I 0 W/m 6,8 C 8,8 C 1,6 km/h
25.04.2019 03:03 8,8 C 87 % 1009,4 hPa 0,0 l/m 0,0 km/h SO 142 0 min 0,0 UV-I 0 W/m 6,8 C 8,8 C 1,6 km/h
25.04.2019 03:00 8,9 C 87 % 1009,5 hPa 0,0 l/m 0,0 km/h SO 142 0 min 0,0 UV-I 0 W/m 6,9 C 8,9 C 0,0 km/h
25.04.2019 02:57 8,9 C 87 % 1009,5 hPa 0,0 l/m 0,0 km/h SO 142 0 min 0,0 UV-I 0 W/m 6,9 C 8,9 C 0,0 km/h
25.04.2019 02:54 9,0 C 87 % 1009,5 hPa 0,0 l/m 0,0 km/h SO 142 0 min 0,0 UV-I 0 W/m 7,0 C 9,0 C 0,0 km/h
25.04.2019 02:51 9,1 C 87 % 1009,5 hPa 0,0 l/m 0,0 km/h SO 142 0 min 0,0 UV-I 0 W/m 7,1 C 9,1 C 0,0 km/h
25.04.2019 02:48 9,2 C 87 % 1009,5 hPa 0,0 l/m 0,0 km/h SO 142 0 min 0,0 UV-I 0 W/m 7,2 C 9,2 C 0,0 km/h
25.04.2019 02:45 9,2 C 87 % 1009,5 hPa 0,0 l/m 0,0 km/h SO 142 0 min 0,0 UV-I 0 W/m 7,2 C 9,2 C 0,0 km/h
25.04.2019 02:42 9,2 C 87 % 1009,4 hPa 0,0 l/m 0,0 km/h SO 142 0 min 0,0 UV-I 0 W/m 7,2 C 9,2 C 0,0 km/h
25.04.2019 02:39 9,3 C 87 % 1009,3 hPa 0,0 l/m 0,0 km/h SO 142 0 min 0,0 UV-I 0 W/m 7,2 C 9,3 C 1,6 km/h
25.04.2019 02:36 9,3 C 86 % 1009,3 hPa 0,0 l/m 0,0 km/h SO 142 0 min 0,0 UV-I 0 W/m 7,1 C 9,3 C 0,0 km/h
25.04.2019 02:33 9,4 C 86 % 1009,3 hPa 0,0 l/m 0,0 km/h SO 142 0 min 0,0 UV-I 0 W/m 7,2 C 9,4 C 0,0 km/h
25.04.2019 02:30 9,4 C 86 % 1009,3 hPa 0,0 l/m 0,0 km/h SO 142 0 min 0,0 UV-I 0 W/m 7,2 C 9,4 C 1,6 km/h
25.04.2019 02:27 9,5 C 86 % 1009,3 hPa 0,0 l/m 0,0 km/h SO 142 0 min 0,0 UV-I 0 W/m 7,3 C 9,5 C 1,6 km/h
25.04.2019 02:24 9,6 C 86 % 1009,2 hPa 0,0 l/m 0,0 km/h SO 142 0 min 0,0 UV-I 0 W/m 7,4 C 9,6 C 0,0 km/h
25.04.2019 02:21 9,6 C 86 % 1009,2 hPa 0,0 l/m 0,0 km/h SO 142 0 min 0,0 UV-I 0 W/m 7,4 C 9,6 C 0,0 km/h
25.04.2019 02:18 9,7 C 86 % 1009,3 hPa 0,0 l/m 0,0 km/h SO 142 0 min 0,0 UV-I 0 W/m 7,5 C 9,7 C 1,6 km/h
25.04.2019 02:15 9,7 C 86 % 1009,3 hPa 0,0 l/m 0,0 km/h SO 142 0 min 0,0 UV-I 0 W/m 7,5 C 9,7 C 0,0 km/h
25.04.2019 02:12 9,8 C 86 % 1009,3 hPa 0,0 l/m 0,0 km/h SO 142 0 min 0,0 UV-I 0 W/m 7,6 C 9,8 C 0,0 km/h
25.04.2019 02:09 9,8 C 86 % 1009,4 hPa 0,0 l/m 0,0 km/h SO 142 0 min 0,0 UV-I 0 W/m 7,6 C 9,8 C 0,0 km/h
25.04.2019 02:06 9,8 C 86 % 1009,4 hPa 0,0 l/m 0,0 km/h SO 142 0 min 0,0 UV-I 0 W/m 7,6 C 9,8 C 0,0 km/h
25.04.2019 02:03 9,9 C 85 % 1009,3 hPa 0,0 l/m 0,0 km/h SO 142 0 min 0,0 UV-I 0 W/m 7,5 C 9,9 C 1,6 km/h
25.04.2019 02:00 9,9 C 85 % 1009,3 hPa 0,0 l/m 0,0 km/h SO 142 0 min 0,0 UV-I 0 W/m 7,5 C 9,9 C 0,0 km/h
25.04.2019 01:57 9,9 C 85 % 1009,3 hPa 0,0 l/m 0,0 km/h SO 142 0 min 0,0 UV-I 0 W/m 7,5 C 9,9 C 0,0 km/h
25.04.2019 01:54 10,0 C 85 % 1009,3 hPa 0,0 l/m 0,1 km/h SO 142 0 min 0,0 UV-I 0 W/m 7,6 C 10,0 C 1,6 km/h
25.04.2019 01:51 10,1 C 85 % 1009,2 hPa 0,0 l/m 0,7 km/h SO 142 0 min 0,0 UV-I 0 W/m 7,7 C 10,1 C 3,2 km/h
25.04.2019 01:48 10,1 C 84 % 1009,1 hPa 0,0 l/m 0,5 km/h SO 142 0 min 0,0 UV-I 0 W/m 7,5 C 10,1 C 3,2 km/h
25.04.2019 01:45 10,2 C 84 % 1009,2 hPa 0,0 l/m 0,2 km/h SO 142 0 min 0,0 UV-I 0 W/m 7,6 C 10,2 C 1,6 km/h
25.04.2019 01:42 10,2 C 83 % 1009,2 hPa 0,0 l/m 0,0 km/h SO 142 0 min 0,0 UV-I 0 W/m 7,4 C 10,2 C 0,0 km/h
25.04.2019 01:39 10,3 C 83 % 1009,2 hPa 0,0 l/m 0,0 km/h SO 142 0 min 0,0 UV-I 0 W/m 7,5 C 10,3 C 0,0 km/h
25.04.2019 01:36 10,3 C 83 % 1009,1 hPa 0,0 l/m 0,0 km/h SO 142 0 min 0,0 UV-I 0 W/m 7,5 C 10,3 C 1,6 km/h
25.04.2019 01:33 10,4 C 83 % 1009,1 hPa 0,0 l/m 0,2 km/h SO 142 0 min 0,0 UV-I 0 W/m 7,6 C 10,4 C 3,2 km/h
25.04.2019 01:30 10,4 C 83 % 1009,1 hPa 0,0 l/m 0,7 km/h SO 142 0 min 0,0 UV-I 0 W/m 7,6 C 10,4 C 3,2 km/h
25.04.2019 01:27 10,6 C 82 % 1009,1 hPa 0,0 l/m 0,0 km/h SO 142 0 min 0,0 UV-I 0 W/m 7,7 C 10,6 C 0,0 km/h
25.04.2019 01:24 10,6 C 82 % 1009,1 hPa 0,0 l/m 0,0 km/h SO 142 0 min 0,0 UV-I 0 W/m 7,7 C 10,6 C 0,0 km/h
25.04.2019 01:21 10,7 C 82 % 1009,1 hPa 0,0 l/m 0,0 km/h SO 142 0 min 0,0 UV-I 0 W/m 7,8 C 10,7 C 0,0 km/h
25.04.2019 01:18 10,7 C 82 % 1009,1 hPa 0,0 l/m 0,9 km/h SO 142 0 min 0,0 UV-I 0 W/m 7,8 C 10,7 C 3,2 km/h
25.04.2019 01:15 10,8 C 82 % 1009,1 hPa 0,0 l/m 2,0 km/h SO 142 0 min 0,0 UV-I 0 W/m 7,9 C 10,8 C 3,2 km/h
25.04.2019 01:12 10,8 C 82 % 1009,1 hPa 0,0 l/m 0,2 km/h SO 142 0 min 0,0 UV-I 0 W/m 7,9 C 10,8 C 1,6 km/h
25.04.2019 01:09 10,9 C 81 % 1009,1 hPa 0,0 l/m 0,2 km/h SO 142 0 min 0,0 UV-I 0 W/m 7,8 C 10,9 C 1,6 km/h
25.04.2019 01:06 11,0 C 81 % 1009,0 hPa 0,0 l/m 0,1 km/h SO 142 0 min 0,0 UV-I 0 W/m 7,9 C 11,0 C 1,6 km/h
25.04.2019 01:03 11,1 C 80 % 1009,0 hPa 0,0 l/m 0,0 km/h SO 142 0 min 0,0 UV-I 0 W/m 7,8 C 11,1 C 1,6 km/h
25.04.2019 01:00 11,2 C 80 % 1009,0 hPa 0,0 l/m 0,1 km/h SO 142 0 min 0,0 UV-I 0 W/m 7,9 C 11,2 C 1,6 km/h
25.04.2019 00:57 11,3 C 80 % 1009,0 hPa 0,0 l/m 1,4 km/h SO 142 0 min 0,0 UV-I 0 W/m 8,0 C 11,3 C 3,2 km/h
25.04.2019 00:54 11,4 C 80 % 1009,0 hPa 0,0 l/m 2,1 km/h SO 142 0 min 0,0 UV-I 0 W/m 8,1 C 11,4 C 3,2 km/h
25.04.2019 00:51 11,5 C 80 % 1008,9 hPa 0,0 l/m 0,6 km/h SO 142 0 min 0,0 UV-I 0 W/m 8,2 C 11,5 C 3,2 km/h
25.04.2019 00:48 11,6 C 79 % 1008,9 hPa 0,0 l/m 0,0 km/h SO 142 0 min 0,0 UV-I 0 W/m 8,1 C 11,6 C 0,0 km/h
25.04.2019 00:45 11,7 C 79 % 1009,0 hPa 0,0 l/m 0,1 km/h SO 142 0 min 0,0 UV-I 0 W/m 8,2 C 11,7 C 1,6 km/h
25.04.2019 00:42 11,8 C 78 % 1009,0 hPa 0,0 l/m 0,0 km/h SO 142 0 min 0,0 UV-I 0 W/m 8,1 C 11,8 C 1,6 km/h
25.04.2019 00:39 12,0 C 77 % 1008,9 hPa 0,0 l/m 0,0 km/h SO 142 0 min 0,0 UV-I 0 W/m 8,1 C 12,0 C 0,0 km/h
25.04.2019 00:36 12,1 C 77 % 1008,9 hPa 0,0 l/m 0,0 km/h SO 142 0 min 0,0 UV-I 0 W/m 8,2 C 12,1 C 1,6 km/h
25.04.2019 00:33 12,2 C 77 % 1008,8 hPa 0,0 l/m 0,0 km/h SO 142 0 min 0,0 UV-I 0 W/m 8,3 C 12,2 C 1,6 km/h
25.04.2019 00:30 12,3 C 77 % 1008,9 hPa 0,0 l/m 0,0 km/h SO 142 0 min 0,0 UV-I 0 W/m 8,4 C 12,3 C 0,0 km/h
25.04.2019 00:27 12,4 C 77 % 1008,8 hPa 0,0 l/m 0,0 km/h SO 142 0 min 0,0 UV-I 0 W/m 8,5 C 12,4 C 0,0 km/h
25.04.2019 00:24 12,6 C 76 % 1008,8 hPa 0,0 l/m 0,0 km/h SO 142 0 min 0,0 UV-I 0 W/m 8,5 C 12,6 C 0,0 km/h
_ Min-Zeit 04:51 17:00 14:57 - 00:03 - - - - - 04:54 06:06 00:03
Minimum _ 7,2 C 45 % 1007,8 hPa - 0,0 km/h - - - - - 5,5 C 3,8 C 0,0 km/h
_ Max-Zeit 14:45 05:45 04:21 05:00 15:03 - - 08:18 12:51 13:15 11:12 14:42 15:12
Maximum _ 24,1 C 94 % 1010,1 hPa 0,0 l/m 23,3 km/h
SO
- - 3 min 6,2 UV-I 823 W/m 13,5 C 22,6 C 46,7 km/h
O-SO
Durchschnitt _ 15,5 C 71 % 1008,7 hPa #0,0 l/m 10,2 km/h SO - #0 min. 0,0 UV-I 0 W/m 9,7 C 13,5 C 20,9 km/h
Schulla EDV